This is the latest recevied weather packets stored in our database for station/object AD0YN. If no packets are shown the sender has not sent any weather packets the latest 10 day(s).
| Time | Temp. | Humidity | Pressure | Rain* | Wind** | Luminosity | Snow |
|---|---|---|---|---|---|---|---|
| 1777133487 | 19.44° C | 56% | 1012.3 hPa | 0 mm | - | 752 W/m² | - |
| 1777133186 | 19.44° C | 58% | 1012.2 hPa | 0 mm | - | 732 W/m² | - |
| 1777132881 | 18.89° C | 55% | 1012.3 hPa | 0 mm | - | 749 W/m² | - |
| 1777132578 | 18.89° C | 54% | 1012.2 hPa | 0 mm | - | 728 W/m² | - |
| 1777132275 | 18.89° C | 55% | 1012.2 hPa | 0 mm | - | 712 W/m² | - |
| 1777131970 | 18.89° C | 58% | 1012.2 hPa | 0 mm | - | 738 W/m² | - |
| 1777131669 | 18.33° C | 55% | 1012.1 hPa | 0 mm | - | 693 W/m² | - |
| 1777131363 | 18.33° C | 55% | 1012.2 hPa | 0 mm | - | 704 W/m² | - |
| 1777131063 | 18.33° C | 58% | 1012.2 hPa | 0 mm | - | 691 W/m² | - |
| 1777130759 | 17.78° C | 59% | 1012.3 hPa | 0 mm | - | 677 W/m² | - |
| 1777130455 | 17.78° C | 61% | 1012.2 hPa | 0 mm | - | 661 W/m² | - |
| 1777130151 | 17.78° C | 61% | 1012.2 hPa | 0 mm | - | 642 W/m² | - |
| 1777129847 | 17.22° C | 61% | 1012.3 hPa | 0 mm | - | 635 W/m² | - |
| 1777129543 | 17.78° C | 62% | 1012.5 hPa | 0 mm | - | 621 W/m² | - |
| 1777129242 | 17.22° C | 63% | 1012.5 hPa | 0 mm | - | 605 W/m² | - |
| 1777128938 | 16.67° C | 66% | 1012.6 hPa | 0 mm | - | 594 W/m² | - |
| 1777128634 | 16.67° C | 63% | 1012.4 hPa | 0 mm | - | 562 W/m² | - |
| 1777128333 | 16.67° C | 66% | 1012.4 hPa | 0 mm | - | 545 W/m² | - |
| 1777128029 | 16.67° C | 63% | 1012.2 hPa | 0 mm | - | 533 W/m² | - |
| 1777127727 | 16.11° C | 68% | 1012.3 hPa | 0 mm | - | 536 W/m² | - |
| 1777127423 | 16.11° C | 66% | 1012.2 hPa | 0 mm | - | 518 W/m² | - |
| 1777127119 | 15.56° C | 68% | 1012.4 hPa | 0 mm | - | 505 W/m² | - |
| 1777126815 | 15.56° C | 69% | 1012.6 hPa | 0 mm | - | 483 W/m² | - |
| 1777126511 | 15° C | 69% | 1012.5 hPa | 0 mm | - | 466 W/m² | - |
| 1777126207 | 15° C | 67% | 1012.4 hPa | 0 mm | - | 450 W/m² | - |
* Rain latest hour (hover to see other rain measurements)
** Current wind speed in m/s (hover to see current wind gust speed)